THOR ABLESTAR DEB, 15558

Orbit data source: Space-Track

THOR ABLESTAR DEB, 15558 is space debris in LEO originally from a launch on Thu, 29 Jun 1961 UTC launched from the Air Force Eastern Test Range (AFETR). Debris objects in space refer to the collection of defunct objects orbiting the Earth. Examples of debris include non-operational satellites, rocket bodies, and fragments generated from explosions, collisions, or faulty payload assembly.

Loading next visibility...
Identifier
15558, 1961-015LE
Orbit
LEO
Country
Flag of USUS
Related business
Manufacturer
Unknown
Mission
Spacecraft
Bus & Motor
Unknown
Mass
Unknown
Launch date (UTC)
1961-06-29 (65 years ago)
Launch vehicle
Unknown
Launch site
Air Force Eastern Test Range (AFETR)
Object type
Payload
Rocket body
Debris
Shape & HBR
Unknown shape, 0.1 m
Radar Cross Section
Small (<0.1 m²)

Expand to show TLE details & history
Last TLE update: 3 days ago

TLE from 3 days ago
0 THOR ABLESTAR DEB
1 15558U 61015LE  26263.46740291  .00000069  00000-0  97471-4 0  9996
2 15558  65.5873 297.1462 0047043  24.8608 335.4719 14.04954883137668
Epoch: 2026-09-20T11:13Z
TLE epoch observation values (Epoch: 2026-09-20T11:13:03.611Z)
Latitude
-0.00006°
Longitude
129.51996°
Altitude
847.658 km
Speed
7.445 km/s
True Right ascension
19h 48m 35s
True Declination
0° 00' 00"
Sunlit
Object was in full shadow at epoch
Visualization orbit readout
Latitude
Unknown
Longitude
Unknown
Altitude
Unknown
Speed
Unknown
Apparent Right ascension
Unknown
Apparent Declination
Unknown
Sunlit
N/A
Visualization observer readout
Local Sidereal Time
16:28:03
Azimuth
Unknown
Elevation
Unknown
Doppler factor
Unknown
Orbital elements
Apogee altitude
909.334 km
Perigee altitude
841.091 km
Semi-major axis
7,253.349 km
Eccentricity
0.0047
Inclination
65.5873°
RAAN
297.1462°
Arg. of periapsis
24.8608°
True anomaly
335.24691°
Mean anomaly
335.4719°
Eccentric anomaly
335.35952°
Mean motion
3.51346 °/min
Orbital period
102.46 mins
BSTAR
0.000097471

Documentation

Showing up to 5 results
|